OCN3P EDDM-GCRR

Flight info

Callsign OCN3P
Flight time 4h 37m
Altitude 35000
Route ALG2S/26L ALG Y109 UMTEX Y100 TRA DCT LUTIX DCT BENOT DCT NEMOS DCT NINTU DCT MEBAK DCT REPSI DCT LERGA DCT MINSO DCT NARAK DCT AGN DCT MAQAB DCT TIVLI DCT ELSAP DCT ZAR DCT KONKE DCT TERSA DCT CJN DCT VTB DCT INPAN DCT CRISA DCT HIJ DCT SVL DCT CLANA DCT KORNO UN857 TERTO
Aircraft A320/M-SDE2E3FGIJ1LORWXYZ/HB1

Departure

Time 2026-05-04 07:20
Airport Munich Airport (EDDM)

Arrival

Time 2026-05-04 11:57
Airport César Manrique-Lanzarote Airport (GCRR)
Time Latitude Longitude Altitude Speed Heading
2026-05-04 07:03 48.35099 11.79368 0 ft 0 kts 263°
2026-05-04 07:10 48.35100 11.79386 1475 ft 4 kts 262°
2026-05-04 07:12 48.35141 11.79507 1474 ft 0 kts 174°
2026-05-04 07:14 48.35066 11.79520 1476 ft 8 kts 173°
2026-05-04 07:14 48.35019 11.79529 1473 ft 6 kts 173°
2026-05-04 07:15 48.34984 11.79536 1477 ft 4 kts 173°
2026-05-04 07:15 48.34962 11.79540 1478 ft 2 kts 173°
2026-05-04 07:15 48.34939 11.79544 1485 ft 8 kts 173°
2026-05-04 07:15 48.34854 11.79559 1481 ft 13 kts 173°
2026-05-04 07:16 48.34772 11.79554 1485 ft 11 kts 185°
2026-05-04 07:16 48.34696 11.79579 1478 ft 15 kts 130°
2026-05-04 07:16 48.34698 11.79780 1479 ft 21 kts 83°
2026-05-04 07:16 48.34718 11.80003 1485 ft 22 kts 82°
2026-05-04 07:17 48.34753 11.80223 1475 ft 22 kts 84°
2026-05-04 07:17 48.34731 11.80386 1476 ft 13 kts 138°
2026-05-04 07:17 48.34663 11.80410 1482 ft 9 kts 173°
2026-05-04 07:17 48.34609 11.80419 1485 ft 7 kts 173°
2026-05-04 07:18 48.34563 11.80423 1480 ft 10 kts 182°
2026-05-04 07:18 48.34489 11.80399 1481 ft 10 kts 212°
2026-05-04 07:18 48.34470 11.80332 1483 ft 0 kts 265°
2026-05-04 07:18 48.34470 11.80331 1483 ft 1 kts 265°
2026-05-04 07:19 48.34455 11.80097 1485 ft 57 kts 263°
2026-05-04 07:19 48.34380 11.79173 1485 ft 118 kts 263°
2026-05-04 07:19 48.34268 11.77699 1483 ft 164 kts 263°
2026-05-04 07:19 48.34127 11.75920 1990 ft 168 kts 264°
2026-05-04 07:20 48.33991 11.74127 2592 ft 177 kts 264°
2026-05-04 07:20 48.33850 11.72187 2918 ft 198 kts 264°
2026-05-04 07:20 48.33691 11.70021 3113 ft 219 kts 264°
2026-05-04 07:20 48.33512 11.67664 3501 ft 234 kts 264°
2026-05-04 07:22 48.31431 11.48723 8334 ft 278 kts 249°
2026-05-04 07:22 48.30762 11.45984 9138 ft 280 kts 248°
2026-05-04 07:23 48.30084 11.43232 9946 ft 282 kts 248°
2026-05-04 07:23 48.29391 11.40426 10388 ft 296 kts 248°
2026-05-04 07:23 48.28646 11.37417 10544 ft 319 kts 248°
2026-05-04 07:23 48.27858 11.34231 10973 ft 330 kts 248°
2026-05-04 07:24 48.27053 11.30981 11597 ft 334 kts 248°
2026-05-04 07:24 48.26251 11.27756 12258 ft 337 kts 248°
2026-05-04 07:24 48.25420 11.24405 12932 ft 339 kts 248°
2026-05-04 07:24 48.24597 11.21078 13595 ft 342 kts 248°
2026-05-04 07:25 48.23764 11.17717 14189 ft 345 kts 248°
2026-05-04 07:26 48.17711 10.93501 18077 ft 364 kts 249°
2026-05-04 07:27 48.16816 10.89942 18578 ft 367 kts 249°
2026-05-04 07:27 48.15912 10.86355 18941 ft 370 kts 249°
2026-05-04 07:27 48.14998 10.82752 19042 ft 370 kts 249°
2026-05-04 07:27 48.14088 10.79161 19058 ft 369 kts 249°
2026-05-04 07:28 48.13171 10.75543 19390 ft 372 kts 249°
2026-05-04 07:28 48.12249 10.71914 19861 ft 374 kts 249°
2026-05-04 07:28 48.11493 10.68952 20225 ft 376 kts 249°
2026-05-04 07:28 48.10558 10.65280 20650 ft 379 kts 249°
2026-05-04 07:29 48.09617 10.61586 21095 ft 381 kts 249°
2026-05-04 07:29 48.08687 10.57933 21504 ft 384 kts 249°
2026-05-04 07:29 48.07731 10.54188 21925 ft 386 kts 249°
2026-05-04 07:29 48.06767 10.50428 22333 ft 389 kts 249°
2026-05-04 07:30 48.05794 10.46638 22744 ft 391 kts 249°
2026-05-04 07:30 48.04814 10.42832 23151 ft 394 kts 249°
2026-05-04 07:30 48.03823 10.39000 23543 ft 396 kts 249°
2026-05-04 07:30 48.02828 10.35150 23880 ft 399 kts 249°
2026-05-04 07:31 48.01827 10.31275 24231 ft 400 kts 249°
2026-05-04 07:31 48.00823 10.27393 24591 ft 401 kts 249°
2026-05-04 07:33 47.93668 9.99927 26967 ft 409 kts 248°
2026-05-04 07:33 47.92630 9.95974 27289 ft 410 kts 248°
2026-05-04 07:33 47.91587 9.92017 27612 ft 411 kts 248°
2026-05-04 07:33 47.90541 9.88049 27935 ft 412 kts 248°
2026-05-04 07:34 47.89846 9.85412 28140 ft 413 kts 248°
2026-05-04 07:34 47.88454 9.80137 28546 ft 415 kts 248°
2026-05-04 07:34 47.87397 9.76133 28845 ft 416 kts 248°
2026-05-04 07:34 47.86336 9.72122 29125 ft 417 kts 248°
2026-05-04 07:35 47.85269 9.68100 29389 ft 418 kts 248°
2026-05-04 07:35 47.84206 9.64059 29667 ft 420 kts 250°
2026-05-04 07:35 47.83443 9.59863 29926 ft 422 kts 258°
2026-05-04 07:35 47.82937 9.55544 30167 ft 424 kts 258°
2026-05-04 07:36 47.82428 9.51236 30482 ft 422 kts 258°
2026-05-04 07:36 47.81916 9.46946 30815 ft 420 kts 258°
2026-05-04 07:38 47.78486 9.18866 32986 ft 410 kts 257°
2026-05-04 07:38 47.77971 9.14710 33305 ft 408 kts 257°
2026-05-04 07:38 47.77457 9.10573 33619 ft 406 kts 257°
2026-05-04 07:38 47.76944 9.06446 33928 ft 405 kts 257°
2026-05-04 07:39 47.76433 9.02338 34209 ft 404 kts 257°
2026-05-04 07:39 47.75930 8.98314 34432 ft 403 kts 257°
2026-05-04 07:39 47.75416 8.94218 34626 ft 403 kts 257°
2026-05-04 07:39 47.74898 8.90122 34811 ft 404 kts 257°
2026-05-04 07:40 47.74380 8.86024 34985 ft 404 kts 257°
2026-05-04 07:40 47.73861 8.81918 35038 ft 403 kts 257°
2026-05-04 07:40 47.72825 8.73745 35043 ft 403 kts 257°
2026-05-04 07:41 47.71781 8.65577 35045 ft 402 kts 257°
2026-05-04 07:41 47.70729 8.57416 35047 ft 402 kts 256°
2026-05-04 07:42 47.69673 8.49256 35050 ft 403 kts 256°
2026-05-04 07:42 47.67798 8.41528 35050 ft 398 kts 238°
2026-05-04 07:43 47.64647 8.34802 35048 ft 397 kts 233°
2026-05-04 07:43 47.61413 8.28149 35051 ft 398 kts 233°
2026-05-04 07:44 47.58218 8.21553 35048 ft 398 kts 233°
2026-05-04 07:44 47.54985 8.14902 35045 ft 398 kts 233°
2026-05-04 07:45 47.51746 8.08265 35045 ft 398 kts 233°
2026-05-04 07:45 47.48479 8.01589 35044 ft 398 kts 233°
2026-05-04 07:46 47.45239 7.94968 35042 ft 398 kts 233°
2026-05-04 07:46 47.41986 7.88361 35044 ft 397 kts 233°
2026-05-04 07:47 47.38802 7.81906 35044 ft 397 kts 233°
2026-05-04 07:49 47.25793 7.55665 35054 ft 397 kts 233°
2026-05-04 07:49 47.22530 7.49116 35055 ft 397 kts 233°
2026-05-04 07:50 47.19269 7.42576 35055 ft 396 kts 233°
2026-05-04 07:50 47.15996 7.36057 35054 ft 396 kts 232°
2026-05-04 07:51 47.12605 7.29693 35057 ft 396 kts 231°
2026-05-04 07:51 47.09138 7.23421 35052 ft 395 kts 231°
2026-05-04 07:52 47.05689 7.17151 35050 ft 395 kts 231°
2026-05-04 07:52 47.02240 7.10819 35047 ft 395 kts 231°
2026-05-04 07:54 46.88531 6.85828 35052 ft 394 kts 230°
2026-05-04 07:55 46.85087 6.79595 35055 ft 394 kts 230°
2026-05-04 07:55 46.81639 6.73376 35052 ft 394 kts 230°
2026-05-04 07:56 46.78189 6.67167 35052 ft 394 kts 230°
2026-05-04 07:56 46.74733 6.60960 35052 ft 394 kts 230°
2026-05-04 07:57 46.71278 6.54758 35047 ft 394 kts 230°
2026-05-04 07:57 46.67820 6.48569 35047 ft 394 kts 230°
2026-05-04 07:58 46.64357 6.42393 35044 ft 393 kts 230°
2026-05-04 07:58 46.60893 6.36235 35046 ft 393 kts 230°
2026-05-04 07:59 46.57460 6.30135 35044 ft 393 kts 230°
2026-05-04 07:59 46.53999 6.23995 35051 ft 393 kts 230°
2026-05-04 08:00 46.50515 6.17829 35049 ft 392 kts 230°
2026-05-04 08:02 46.36639 5.93420 35045 ft 392 kts 229°
2026-05-04 08:02 46.33161 5.87341 35041 ft 392 kts 229°
2026-05-04 08:03 46.29683 5.81264 35042 ft 392 kts 229°
2026-05-04 08:03 46.26199 5.75185 35035 ft 392 kts 229°
2026-05-04 08:04 46.22739 5.69177 35036 ft 392 kts 229°
2026-05-04 08:04 46.19248 5.63120 35040 ft 392 kts 229°
2026-05-04 08:05 46.15746 5.57072 35037 ft 393 kts 229°
2026-05-04 08:05 46.12521 5.50709 35028 ft 394 kts 233°
2026-05-04 08:06 46.09412 5.44213 35036 ft 394 kts 233°
2026-05-04 08:06 46.06293 5.37723 35037 ft 394 kts 233°
2026-05-04 08:08 45.93758 5.11771 35054 ft 394 kts 233°
2026-05-04 08:11 45.80154 4.83905 35063 ft 394 kts 232°
2026-05-04 08:11 45.75423 4.74269 35050 ft 394 kts 232°
2026-05-04 08:12 45.72263 4.67854 35045 ft 394 kts 232°
2026-05-04 08:12 45.69077 4.61401 35036 ft 395 kts 232°
2026-05-04 08:13 45.65906 4.54982 35022 ft 395 kts 232°
2026-05-04 08:13 45.62725 4.48565 35027 ft 396 kts 232°
2026-05-04 08:14 45.59560 4.42202 35029 ft 396 kts 232°
2026-05-04 08:16 45.46739 4.16545 35033 ft 397 kts 232°
2026-05-04 08:16 45.43522 4.10150 35033 ft 397 kts 232°
2026-05-04 08:17 45.40305 4.03755 35033 ft 397 kts 232°
2026-05-04 08:17 45.37081 3.97373 35035 ft 397 kts 232°
2026-05-04 08:19 45.24166 3.71935 35037 ft 397 kts 232°
2026-05-04 08:20 45.21013 3.65506 35035 ft 397 kts 233°
2026-05-04 08:20 45.17872 3.59069 35038 ft 397 kts 233°
2026-05-04 08:21 45.14715 3.52663 35034 ft 396 kts 232°
2026-05-04 08:21 45.11548 3.46280 35029 ft 396 kts 232°
2026-05-04 08:22 45.08380 3.39916 35026 ft 395 kts 232°
2026-05-04 08:24 44.95738 3.14591 35020 ft 395 kts 232°
2026-05-04 08:24 44.92566 3.08270 35022 ft 395 kts 232°
2026-05-04 08:25 44.89386 3.01945 35026 ft 395 kts 232°
2026-05-04 08:25 44.86205 2.95638 35025 ft 395 kts 232°
2026-05-04 08:27 44.74159 2.69726 35017 ft 395 kts 234°
2026-05-04 08:28 44.71159 2.63265 35009 ft 394 kts 234°
2026-05-04 08:28 44.68160 2.56822 35005 ft 394 kts 234°
2026-05-04 08:29 44.65187 2.50440 35001 ft 393 kts 234°
2026-05-04 08:31 44.53194 2.24803 34992 ft 393 kts 234°
2026-05-04 08:33 44.41160 1.99314 34984 ft 392 kts 234°
2026-05-04 08:35 44.29094 1.73991 34976 ft 392 kts 234°
2026-05-04 08:35 44.26127 1.67591 34971 ft 393 kts 235°
2026-05-04 08:37 44.15801 1.45066 34960 ft 394 kts 235°
2026-05-04 08:38 44.12833 1.38654 34960 ft 394 kts 235°
2026-05-04 08:38 44.09860 1.32243 34957 ft 395 kts 235°
2026-05-04 08:40 43.97916 1.06664 34979 ft 395 kts 235°
2026-05-04 08:41 43.94919 1.00271 34983 ft 395 kts 235°
2026-05-04 08:41 43.91920 0.93893 34982 ft 395 kts 235°
2026-05-04 08:42 43.88834 0.87619 34986 ft 393 kts 228°
2026-05-04 08:42 43.84874 0.82419 34987 ft 392 kts 221°
2026-05-04 08:43 43.80806 0.77397 34986 ft 392 kts 221°
2026-05-04 08:43 43.76735 0.72377 34988 ft 391 kts 222°
2026-05-04 08:44 43.73332 0.68183 34987 ft 391 kts 222°
2026-05-04 08:46 43.57148 0.48321 34987 ft 388 kts 222°
2026-05-04 08:46 43.53107 0.43390 34981 ft 388 kts 222°
2026-05-04 08:47 43.49068 0.38475 34982 ft 387 kts 222°
2026-05-04 08:47 43.45033 0.33570 34977 ft 387 kts 222°
2026-05-04 08:48 43.41003 0.28676 34982 ft 386 kts 222°
2026-05-04 08:48 43.36975 0.23802 34973 ft 387 kts 222°
2026-05-04 08:49 43.32908 0.18892 34982 ft 386 kts 222°
2026-05-04 08:50 43.18841 0.01955 34977 ft 385 kts 222°
2026-05-04 08:51 43.14872 -0.02819 34972 ft 384 kts 222°
2026-05-04 08:51 43.10848 -0.07633 34973 ft 384 kts 222°
2026-05-04 08:52 43.06815 -0.12435 34968 ft 384 kts 222°
2026-05-04 08:52 43.02786 -0.17235 34971 ft 384 kts 222°
2026-05-04 08:54 42.86716 -0.36318 34980 ft 383 kts 222°
2026-05-04 08:55 42.82688 -0.41069 34980 ft 382 kts 222°
2026-05-04 08:55 42.78187 -0.44894 34989 ft 386 kts 205°
2026-05-04 09:01 42.25773 -0.72287 34999 ft 382 kts 205°
2026-05-04 09:01 42.20813 -0.74860 34993 ft 382 kts 205°
2026-05-04 09:02 42.15860 -0.77426 34992 ft 381 kts 205°
2026-05-04 09:02 42.10910 -0.79980 34987 ft 381 kts 205°
2026-05-04 09:03 42.05964 -0.82536 34991 ft 381 kts 205°
2026-05-04 09:03 42.01020 -0.85082 34993 ft 380 kts 205°
2026-05-04 09:04 41.96040 -0.87643 34987 ft 380 kts 205°
2026-05-04 09:04 41.91142 -0.90153 34982 ft 380 kts 205°
2026-05-04 09:05 41.86198 -0.92678 34983 ft 380 kts 205°
2026-05-04 09:05 41.81261 -0.95196 34971 ft 380 kts 205°
2026-05-04 09:06 41.76322 -0.97717 34965 ft 380 kts 205°
2026-05-04 09:07 41.60525 -1.09453 34964 ft 371 kts 224°
2026-05-04 09:08 41.58611 -1.11767 34967 ft 371 kts 224°
2026-05-04 09:08 41.54784 -1.16379 34971 ft 371 kts 224°
2026-05-04 09:09 41.50953 -1.20985 34975 ft 371 kts 224°
2026-05-04 09:09 41.47151 -1.25550 34982 ft 371 kts 224°
2026-05-04 09:10 41.43323 -1.30145 34984 ft 370 kts 224°
2026-05-04 09:10 41.39490 -1.34738 34983 ft 370 kts 224°
2026-05-04 09:11 41.35661 -1.39324 34979 ft 370 kts 224°
2026-05-04 09:11 41.31804 -1.43927 34975 ft 370 kts 223°
2026-05-04 09:12 41.27969 -1.48491 34974 ft 370 kts 223°
2026-05-04 09:14 41.12667 -1.66646 34971 ft 369 kts 223°
2026-05-04 09:14 41.08840 -1.71181 34967 ft 369 kts 223°
2026-05-04 09:15 41.05009 -1.75707 34967 ft 369 kts 223°
2026-05-04 09:15 41.01177 -1.80225 34967 ft 369 kts 223°
2026-05-04 09:17 40.84520 -1.99758 34972 ft 369 kts 223°
2026-05-04 09:18 40.80675 -2.04252 34974 ft 369 kts 223°
2026-05-04 09:18 40.76832 -2.08744 34975 ft 369 kts 223°
2026-05-04 09:19 40.73004 -2.13187 34980 ft 369 kts 223°
2026-05-04 09:19 40.69141 -2.17658 34986 ft 370 kts 223°
2026-05-04 09:20 40.65282 -2.22133 34992 ft 370 kts 223°
2026-05-04 09:20 40.61424 -2.26600 34994 ft 369 kts 223°
2026-05-04 09:21 40.57562 -2.31060 34996 ft 369 kts 223°
2026-05-04 09:21 40.53699 -2.35512 34997 ft 369 kts 223°
2026-05-04 09:22 40.49837 -2.39957 34996 ft 369 kts 223°
2026-05-04 09:22 40.45971 -2.44401 34999 ft 369 kts 223°
2026-05-04 09:23 40.42093 -2.48834 35002 ft 370 kts 223°
2026-05-04 09:23 40.38219 -2.53273 34997 ft 370 kts 223°
2026-05-04 09:25 40.25006 -2.73631 35001 ft 369 kts 231°
2026-05-04 09:26 40.21721 -2.78782 34999 ft 369 kts 231°
2026-05-04 09:26 40.18427 -2.83929 34996 ft 369 kts 231°
2026-05-04 09:27 40.15139 -2.89071 34997 ft 369 kts 231°
2026-05-04 09:27 40.11849 -2.94212 34997 ft 369 kts 231°
2026-05-04 09:28 40.08552 -2.99341 35001 ft 368 kts 231°
2026-05-04 09:28 40.05256 -3.04465 35005 ft 369 kts 231°
2026-05-04 09:29 40.01982 -3.09540 35003 ft 369 kts 231°
2026-05-04 09:29 39.98680 -3.14654 35004 ft 369 kts 231°
2026-05-04 09:30 39.95374 -3.19766 35001 ft 368 kts 231°
2026-05-04 09:30 39.92071 -3.24868 35002 ft 368 kts 231°
2026-05-04 09:31 39.88776 -3.29955 35003 ft 368 kts 231°
2026-05-04 09:31 39.85459 -3.35064 34999 ft 368 kts 231°
2026-05-04 09:32 39.82121 -3.40181 34994 ft 368 kts 231°
2026-05-04 09:34 39.68089 -3.59555 34999 ft 369 kts 227°
2026-05-04 09:34 39.64463 -3.64279 34998 ft 370 kts 227°
2026-05-04 09:35 39.60851 -3.69030 35004 ft 370 kts 227°
2026-05-04 09:35 39.57238 -3.73771 35008 ft 370 kts 227°
2026-05-04 09:37 39.42762 -3.92684 35007 ft 370 kts 227°
2026-05-04 09:38 39.39134 -3.97395 35008 ft 370 kts 227°
2026-05-04 09:38 39.35502 -4.02102 35006 ft 370 kts 227°
2026-05-04 09:39 39.31899 -4.06771 35013 ft 370 kts 227°
2026-05-04 09:39 39.28263 -4.11481 35011 ft 370 kts 228°
2026-05-04 09:40 39.24596 -4.16213 35015 ft 370 kts 227°
2026-05-04 09:40 39.20951 -4.20917 35022 ft 371 kts 228°
2026-05-04 09:42 39.06344 -4.39677 35036 ft 371 kts 227°
2026-05-04 09:43 39.02688 -4.44356 35034 ft 371 kts 228°
2026-05-04 09:43 38.99030 -4.49037 35032 ft 371 kts 228°
2026-05-04 09:44 38.95397 -4.53671 35029 ft 371 kts 228°
2026-05-04 09:46 38.80706 -4.72344 35039 ft 372 kts 228°
2026-05-04 09:46 38.77029 -4.76999 35043 ft 372 kts 228°
2026-05-04 09:47 38.73325 -4.81679 35038 ft 372 kts 228°
2026-05-04 09:49 38.58612 -5.00196 35028 ft 372 kts 228°
2026-05-04 09:51 38.44940 -5.13634 35027 ft 383 kts 212°
2026-05-04 09:51 38.40147 -5.16606 35024 ft 383 kts 212°
2026-05-04 09:52 38.35350 -5.19578 35026 ft 383 kts 212°
2026-05-04 09:52 38.30518 -5.22571 35027 ft 384 kts 212°
2026-05-04 09:53 38.25716 -5.25549 35029 ft 384 kts 212°
2026-05-04 09:53 38.20911 -5.28515 35027 ft 384 kts 212°
2026-05-04 09:54 38.16104 -5.31483 35031 ft 384 kts 212°
2026-05-04 09:54 38.11331 -5.34422 35030 ft 384 kts 212°
2026-05-04 09:55 38.06521 -5.37385 35030 ft 384 kts 212°
2026-05-04 09:55 38.01710 -5.40346 35031 ft 384 kts 212°
2026-05-04 09:56 37.96894 -5.43299 35030 ft 384 kts 212°
2026-05-04 09:56 37.92081 -5.46243 35026 ft 384 kts 212°
2026-05-04 09:57 37.87271 -5.49185 35028 ft 384 kts 212°
2026-05-04 09:57 37.82453 -5.52129 35031 ft 385 kts 212°
2026-05-04 09:58 37.77628 -5.55066 35027 ft 385 kts 212°
2026-05-04 09:58 37.72799 -5.58009 35027 ft 385 kts 212°
2026-05-04 10:00 37.53476 -5.69741 35040 ft 385 kts 212°
2026-05-04 10:02 37.37658 -5.81682 35036 ft 375 kts 225°
2026-05-04 10:04 37.23911 -5.96267 35036 ft 375 kts 225°
2026-05-04 10:04 37.19957 -6.00451 35038 ft 375 kts 225°
2026-05-04 10:05 37.15972 -6.04668 35045 ft 375 kts 225°
2026-05-04 10:05 37.11983 -6.08881 35046 ft 375 kts 225°
2026-05-04 10:06 37.07997 -6.13088 35047 ft 375 kts 225°
2026-05-04 10:06 37.04010 -6.17290 35047 ft 375 kts 225°
2026-05-04 10:08 36.90039 -6.31959 35086 ft 373 kts 225°
2026-05-04 10:08 36.86056 -6.36112 35091 ft 373 kts 225°
2026-05-04 10:09 36.82114 -6.40227 35095 ft 372 kts 225°
2026-05-04 10:09 36.78142 -6.44381 35095 ft 372 kts 225°
2026-05-04 10:10 36.74173 -6.48528 35097 ft 372 kts 225°
2026-05-04 10:10 36.70202 -6.52667 35093 ft 372 kts 225°
2026-05-04 10:11 36.66228 -6.56792 35092 ft 372 kts 225°
2026-05-04 10:11 36.62256 -6.60916 35090 ft 372 kts 225°
2026-05-04 10:12 36.58287 -6.65032 35090 ft 371 kts 226°
2026-05-04 10:12 36.54365 -6.69090 35090 ft 371 kts 226°
2026-05-04 10:13 36.50396 -6.73190 35094 ft 371 kts 226°
2026-05-04 10:13 36.46429 -6.77290 35095 ft 371 kts 226°
2026-05-04 10:14 36.42490 -6.81353 35092 ft 371 kts 226°
2026-05-04 10:16 36.26560 -6.97706 35102 ft 371 kts 226°
2026-05-04 10:16 36.22582 -7.01783 35096 ft 371 kts 226°
2026-05-04 10:17 36.18599 -7.05855 35097 ft 371 kts 226°
2026-05-04 10:19 36.02671 -7.22082 35106 ft 372 kts 226°
2026-05-04 10:19 35.98672 -7.26139 35107 ft 372 kts 226°
2026-05-04 10:20 35.94667 -7.30199 35103 ft 372 kts 226°
2026-05-04 10:20 35.90663 -7.34255 35104 ft 373 kts 226°
2026-05-04 10:21 35.86650 -7.38304 35106 ft 373 kts 226°
2026-05-04 10:21 35.82640 -7.42360 35105 ft 373 kts 226°
2026-05-04 10:22 35.76601 -7.48418 35105 ft 374 kts 225°
2026-05-04 10:23 35.72557 -7.52444 35104 ft 374 kts 225°
2026-05-04 10:25 35.57045 -7.67838 35112 ft 374 kts 225°
2026-05-04 10:25 35.52994 -7.71861 35115 ft 375 kts 225°
2026-05-04 10:26 35.48939 -7.75883 35116 ft 375 kts 225°
2026-05-04 10:26 35.44877 -7.79891 35110 ft 375 kts 225°
2026-05-04 10:27 35.40813 -7.83900 35115 ft 375 kts 225°
2026-05-04 10:27 35.36770 -7.87930 35115 ft 375 kts 226°
2026-05-04 10:28 35.32739 -7.91977 35113 ft 375 kts 226°
2026-05-04 10:28 35.28676 -7.96044 35117 ft 375 kts 226°
2026-05-04 10:29 35.24637 -8.00075 35118 ft 375 kts 226°
2026-05-04 10:29 35.20628 -8.04070 35121 ft 375 kts 226°
2026-05-04 10:30 35.16581 -8.08089 35121 ft 375 kts 226°
2026-05-04 10:30 35.12532 -8.12106 35120 ft 375 kts 226°
2026-05-04 10:31 35.08487 -8.16122 35117 ft 375 kts 226°
2026-05-04 10:32 34.94312 -8.30118 35128 ft 374 kts 226°
2026-05-04 10:33 34.90270 -8.34108 35124 ft 374 kts 226°
2026-05-04 10:33 34.86226 -8.38093 35123 ft 374 kts 226°
2026-05-04 10:34 34.82218 -8.42035 35127 ft 373 kts 226°
2026-05-04 10:34 34.78181 -8.46005 35123 ft 373 kts 226°
2026-05-04 10:35 34.74141 -8.49961 35127 ft 373 kts 226°
2026-05-04 10:35 34.70099 -8.53912 35129 ft 373 kts 226°
2026-05-04 10:36 34.66055 -8.57859 35124 ft 373 kts 226°
2026-05-04 10:36 34.61983 -8.61825 35132 ft 373 kts 226°
2026-05-04 10:37 34.57948 -8.65772 35130 ft 372 kts 226°
2026-05-04 10:37 34.53913 -8.69713 35125 ft 372 kts 226°
2026-05-04 10:39 34.39787 -8.83422 35125 ft 373 kts 225°
2026-05-04 10:40 34.35714 -8.87320 35125 ft 373 kts 225°
2026-05-04 10:40 34.31649 -8.91224 35125 ft 373 kts 225°
2026-05-04 10:41 34.27581 -8.95132 35125 ft 373 kts 225°
2026-05-04 10:41 34.23506 -8.99032 35125 ft 374 kts 225°
2026-05-04 10:42 34.19422 -9.02925 35124 ft 374 kts 225°
2026-05-04 10:42 34.15340 -9.06828 35122 ft 374 kts 225°
2026-05-04 10:43 34.11254 -9.10729 35120 ft 375 kts 225°
2026-05-04 10:45 33.94857 -9.26344 35122 ft 376 kts 225°
2026-05-04 10:45 33.90743 -9.30250 35123 ft 377 kts 224°
2026-05-04 10:46 33.86618 -9.34153 35121 ft 377 kts 224°
2026-05-04 10:46 33.82538 -9.38005 35123 ft 378 kts 224°
2026-05-04 10:47 33.78403 -9.41901 35120 ft 378 kts 224°
2026-05-04 10:47 33.74264 -9.45809 35120 ft 378 kts 224°
2026-05-04 10:49 33.57698 -9.61394 35120 ft 380 kts 224°
2026-05-04 10:50 33.53537 -9.65300 35119 ft 380 kts 224°
2026-05-04 10:52 33.36820 -9.80910 35120 ft 381 kts 224°
2026-05-04 10:52 33.32647 -9.84806 35125 ft 381 kts 224°
2026-05-04 10:54 33.15916 -10.00345 35131 ft 383 kts 223°
2026-05-04 10:56 32.99062 -10.15912 35122 ft 384 kts 222°
2026-05-04 10:57 32.94840 -10.19798 35122 ft 384 kts 222°
2026-05-04 10:57 32.90617 -10.23682 35113 ft 384 kts 222°
2026-05-04 10:58 32.87075 -10.26938 35116 ft 384 kts 222°
2026-05-04 10:58 32.82841 -10.30820 35122 ft 384 kts 222°
2026-05-04 10:59 32.78599 -10.34701 35123 ft 385 kts 222°
2026-05-04 10:59 32.74391 -10.38546 35120 ft 385 kts 222°
2026-05-04 11:00 32.70140 -10.42421 35119 ft 385 kts 222°
2026-05-04 11:02 32.53114 -10.57925 35117 ft 387 kts 221°
2026-05-04 11:05 32.20956 -10.86993 35116 ft 389 kts 221°
2026-05-04 11:06 32.16651 -10.90872 35120 ft 389 kts 221°
2026-05-04 11:06 32.12341 -10.94736 35119 ft 389 kts 221°
2026-05-04 11:10 31.82149 -11.21731 35120 ft 390 kts 221°
2026-05-04 11:12 31.64815 -11.37183 35131 ft 392 kts 221°
2026-05-04 11:12 31.60479 -11.41046 35130 ft 391 kts 221°
2026-05-04 11:13 31.56144 -11.44904 35129 ft 391 kts 221°
2026-05-04 11:13 31.51804 -11.48751 35125 ft 391 kts 221°
2026-05-04 11:14 31.47495 -11.52561 35123 ft 391 kts 221°
2026-05-04 11:16 31.30125 -11.67924 35125 ft 391 kts 221°
2026-05-04 11:16 31.25777 -11.71758 35119 ft 391 kts 221°
2026-05-04 11:17 31.21431 -11.75588 35120 ft 391 kts 221°
2026-05-04 11:19 31.04046 -11.90842 35123 ft 392 kts 221°
2026-05-04 11:19 30.99660 -11.94677 35123 ft 392 kts 221°
2026-05-04 11:20 30.95302 -11.98492 35120 ft 392 kts 221°
2026-05-04 11:20 30.91002 -12.02249 35119 ft 391 kts 221°
2026-05-04 11:22 30.73573 -12.17428 35130 ft 391 kts 221°
2026-05-04 11:23 30.69213 -12.21203 35132 ft 391 kts 221°
2026-05-04 11:25 30.54013 -12.34362 35131 ft 390 kts 221°
2026-05-04 11:25 30.49664 -12.38120 35130 ft 390 kts 221°
2026-05-04 11:27 30.30051 -12.54957 35151 ft 388 kts 223°
2026-05-04 11:28 30.25711 -12.58671 35148 ft 387 kts 223°
2026-05-04 11:28 30.21380 -12.62374 35149 ft 387 kts 223°
2026-05-04 11:29 30.17084 -12.66032 35146 ft 386 kts 223°
2026-05-04 11:29 30.12760 -12.69711 35140 ft 386 kts 223°
2026-05-04 11:31 30.00738 -12.84203 31044 ft 373 kts 232°
2026-05-04 11:33 29.88127 -12.98746 26953 ft 370 kts 210°
2026-05-04 11:33 29.85697 -12.99778 26416 ft 373 kts 205°
2026-05-04 11:33 29.83245 -13.00720 25887 ft 370 kts 205°
2026-05-04 11:34 29.80813 -13.01657 25379 ft 368 kts 205°
2026-05-04 11:34 29.78436 -13.02575 24897 ft 365 kts 205°
2026-05-04 11:34 29.76038 -13.03503 24414 ft 362 kts 204°
2026-05-04 11:34 29.73654 -13.04426 23929 ft 360 kts 204°
2026-05-04 11:35 29.71289 -13.05344 23418 ft 358 kts 204°
2026-05-04 11:35 29.68938 -13.06256 22882 ft 356 kts 204°
2026-05-04 11:35 29.66602 -13.07161 22365 ft 354 kts 204°
2026-05-04 11:35 29.64275 -13.08060 21862 ft 352 kts 204°
2026-05-04 11:36 29.61957 -13.08954 21367 ft 350 kts 204°
2026-05-04 11:36 29.59653 -13.09842 20885 ft 349 kts 204°
2026-05-04 11:36 29.57357 -13.10727 20414 ft 347 kts 204°
2026-05-04 11:36 29.55069 -13.11605 19958 ft 346 kts 203°
2026-05-04 11:37 29.52786 -13.12481 19508 ft 345 kts 203°
2026-05-04 11:37 29.50516 -13.13355 19071 ft 343 kts 203°
2026-05-04 11:37 29.48255 -13.14224 18638 ft 342 kts 203°
2026-05-04 11:37 29.45999 -13.15094 18184 ft 341 kts 203°
2026-05-04 11:38 29.43756 -13.15959 17713 ft 340 kts 203°
2026-05-04 11:38 29.41520 -13.16818 17261 ft 338 kts 203°
2026-05-04 11:38 29.39298 -13.17669 16825 ft 336 kts 203°
2026-05-04 11:38 29.37089 -13.18517 16406 ft 334 kts 203°
2026-05-04 11:39 29.34884 -13.19335 15992 ft 333 kts 201°
2026-05-04 11:39 29.32700 -13.20064 15591 ft 332 kts 200°
2026-05-04 11:40 29.19479 -13.24228 13207 ft 322 kts 201°
2026-05-04 11:41 29.17337 -13.24958 12803 ft 320 kts 201°
2026-05-04 11:41 29.15211 -13.25687 12402 ft 318 kts 201°
2026-05-04 11:41 29.13091 -13.26413 12009 ft 317 kts 201°
2026-05-04 11:41 29.10983 -13.27128 11613 ft 315 kts 201°
2026-05-04 11:42 29.08888 -13.27836 11222 ft 313 kts 201°
2026-05-04 11:42 29.06804 -13.28536 10825 ft 312 kts 201°
2026-05-04 11:42 29.04729 -13.29231 10463 ft 309 kts 201°
2026-05-04 11:42 29.02671 -13.29922 10088 ft 307 kts 201°
2026-05-04 11:43 29.00648 -13.30601 9920 ft 298 kts 201°
2026-05-04 11:43 28.98722 -13.31247 9683 ft 291 kts 201°
2026-05-04 11:43 28.96759 -13.31924 9321 ft 288 kts 202°
2026-05-04 11:43 28.94866 -13.32630 9012 ft 283 kts 203°
2026-05-04 11:44 28.93030 -13.33334 8882 ft 273 kts 203°
2026-05-04 11:44 28.91254 -13.33871 8753 ft 267 kts 191°
2026-05-04 11:44 28.89416 -13.33798 8579 ft 266 kts 172°
2026-05-04 11:44 28.87677 -13.33058 8270 ft 268 kts 157°
2026-05-04 11:45 28.86022 -13.32124 8114 ft 263 kts 157°
2026-05-04 11:45 28.84384 -13.31200 8122 ft 263 kts 157°
2026-05-04 11:45 28.82747 -13.30279 8123 ft 263 kts 157°
2026-05-04 11:45 28.81107 -13.29357 8120 ft 263 kts 157°
2026-05-04 11:46 28.79465 -13.28443 8121 ft 263 kts 160°
2026-05-04 11:46 28.77729 -13.27878 8123 ft 257 kts 177°
2026-05-04 11:46 28.75963 -13.27847 8126 ft 253 kts 188°
2026-05-04 11:46 28.74204 -13.27952 8125 ft 253 kts 187°
2026-05-04 11:47 28.72441 -13.28046 8123 ft 254 kts 187°
2026-05-04 11:47 28.70676 -13.28135 8125 ft 254 kts 187°
2026-05-04 11:47 28.68927 -13.28319 8118 ft 250 kts 200°
2026-05-04 11:47 28.67421 -13.29192 8120 ft 241 kts 225°
2026-05-04 11:48 28.66435 -13.30678 8122 ft 234 kts 250°
2026-05-04 11:48 28.66109 -13.32493 8121 ft 232 kts 273°
2026-05-04 11:48 28.66436 -13.34280 8123 ft 232 kts 287°
2026-05-04 11:48 28.66917 -13.36033 8115 ft 232 kts 287°
2026-05-04 11:49 28.67398 -13.37798 7782 ft 234 kts 287°
2026-05-04 11:49 28.67872 -13.39540 7398 ft 235 kts 287°
2026-05-04 11:49 28.68356 -13.41322 7045 ft 236 kts 287°
2026-05-04 11:49 28.68841 -13.43105 6685 ft 236 kts 287°
2026-05-04 11:50 28.69326 -13.44888 6334 ft 235 kts 287°
2026-05-04 11:50 28.69808 -13.46665 5996 ft 234 kts 288°
2026-05-04 11:50 28.70284 -13.48424 5730 ft 231 kts 288°
2026-05-04 11:50 28.70757 -13.50173 5514 ft 231 kts 288°
2026-05-04 11:51 28.71229 -13.51920 5301 ft 231 kts 288°
2026-05-04 11:51 28.71702 -13.53673 5101 ft 231 kts 288°
2026-05-04 11:51 28.72175 -13.55427 4886 ft 232 kts 289°
2026-05-04 11:51 28.72649 -13.57184 4682 ft 232 kts 289°
2026-05-04 11:52 28.73123 -13.58947 4476 ft 233 kts 289°
2026-05-04 11:52 28.73594 -13.60713 4273 ft 233 kts 289°
2026-05-04 11:52 28.74065 -13.62482 4068 ft 234 kts 289°
2026-05-04 11:52 28.74537 -13.64251 3873 ft 233 kts 289°
2026-05-04 11:53 28.75045 -13.66010 3454 ft 235 kts 297°
2026-05-04 11:53 28.75970 -13.67521 2971 ft 234 kts 320°
2026-05-04 11:53 28.77263 -13.68550 2828 ft 221 kts 338°
2026-05-04 11:53 28.78709 -13.68996 2699 ft 213 kts 359°
2026-05-04 11:55 28.87681 -13.64501 1360 ft 173 kts 28°
2026-05-04 11:55 28.88702 -13.63910 1154 ft 154 kts 28°
2026-05-04 11:56 28.89624 -13.63378 932 ft 141 kts 30°
2026-05-04 11:56 28.90478 -13.62883 750 ft 134 kts 31°
2026-05-04 11:56 28.91299 -13.62407 575 ft 131 kts 32°
2026-05-04 11:56 28.92109 -13.61937 403 ft 132 kts 34°
2026-05-04 11:57 28.92930 -13.61462 249 ft 132 kts 33°
2026-05-04 11:57 28.93745 -13.60988 34 ft 130 kts 33°
2026-05-04 11:57 28.94445 -13.60566 34 ft 92 kts 26°
2026-05-04 11:57 28.94862 -13.60338 45 ft 41 kts 25°
2026-05-04 11:58 28.95061 -13.60232 49 ft 26 kts 18°
2026-05-04 11:58 28.95236 -13.60208 49 ft 26 kts 359°
2026-05-04 11:58 28.95321 -13.60275 50 ft 14 kts 245°
2026-05-04 11:58 28.95241 -13.60329 50 ft 13 kts 206°
2026-05-04 11:59 28.95163 -13.60373 50 ft 12 kts 206°
2026-05-04 11:59 28.95106 -13.60422 50 ft 9 kts 263°
2026-05-04 11:59 28.95129 -13.60486 50 ft 8 kts 296°
2026-05-04 11:59 28.95129 -13.60537 50 ft 6 kts 227°
2026-05-04 12:00 28.95093 -13.60570 50 ft 10 kts 219°
2026-05-04 12:00 28.95037 -13.60622 50 ft 10 kts 211°
2026-05-04 12:00 28.94979 -13.60654 47 ft 9 kts 207°
2026-05-04 12:00 28.94981 -13.60680 50 ft 4 kts 295°
2026-05-04 12:01 28.94999 -13.60724 50 ft 6 kts 297°
2026-05-04 12:01 28.95013 -13.60757 50 ft 0 kts 296°